NK0V Weather Reports


Display with metric or nautical units.
time (UTC)temp
F
wind
direction
speed
MPH
gust
MPH
rain 1hr
in
rain 24hr
in
rain mn
in
humidity
%
barometer
mb
20260504034618 53 211 5.0 8.0 0.00 0.00 0.00 42 1004.7
20260504034100 53 213 4.0 7.0 0.00 0.00 0.00 41 1004.8
20260504033600 54 243 1.0 4.0 0.00 0.00 0.00 42 1004.9
20260504033104 54 241 1.0 5.0 0.00 0.00 0.00 41 1005.0
20260504032600 54 234 2.0 6.0 0.00 0.00 0.00 41 1005.0
20260504032102 54 217 3.0 6.0 0.00 0.00 0.00 41 1005.0
20260504031604 55 219 3.0 5.0 0.00 0.00 0.00 40 1005.1
20260504031103 55 220 2.0 5.0 0.00 0.00 0.00 40 1005.3
20260504030556 55 227 2.0 5.0 0.00 0.00 0.00 40 1005.3
20260504030110 56 219 3.0 5.0 0.00 0.00 0.00 40 1005.3
20260504025559 56 220 3.0 5.0 0.00 0.00 0.00 39 1005.4
20260504025102 56 221 3.0 5.0 0.00 0.00 0.00 38 1005.5
20260504024558 57 214 3.0 5.0 0.00 0.00 0.00 38 1005.5
20260504024101 57 241 1.0 3.0 0.00 0.00 0.00 38 1005.6
20260504023600 58 230 1.0 4.0 0.00 0.00 0.00 38 1005.5
20260504023059 58 224 1.0 7.0 0.00 0.00 0.00 37 1005.5
20260504022557 58 229 3.0 7.0 0.00 0.00 0.00 36 1005.5
20260504022059 59 221 2.0 4.0 0.00 0.00 0.00 35 1005.6
20260504021600 59 232 2.0 4.0 0.00 0.00 0.00 35 1005.6
20260504021058 60 221 2.0 4.0 0.00 0.00 0.00 35 1005.7
20260504020555 61 236 2.0 4.0 0.00 0.00 0.00 34 1005.7
20260504020109 61 239 2.0 4.0 0.00 0.00 0.00 34 1005.8
20260504015557 62 239 2.0 4.0 0.00 0.00 0.00 33 1005.8
20260504015057 62 230 2.0 4.0 0.00 0.00 0.00 32 1005.9
20260504014605 63 237 2.0 6.0 0.00 0.00 0.00 31 1005.9
20260504014056 63 244 3.0 7.0 0.00 0.00 0.00 30 1005.9
20260504013556 64 254 2.0 7.0 0.00 0.00 0.00 29 1006.0
20260504013107 64 267 3.0 7.0 0.00 0.00 0.00 29 1005.9
20260504012559 65 266 3.0 7.0 0.00 0.00 0.00 28 1005.9
20260504012056 65 240 2.0 7.0 0.00 0.00 0.00 28 1005.9
20260504011600 66 271 3.0 8.0 0.00 0.00 0.00 27 1005.9
20260504011058 66 265 4.0 8.0 0.00 0.00 0.00 27 1006.0
20260504010555 66 258 4.0 9.0 0.00 0.00 0.00 27 1005.9
20260504005556 67 280 3.0 11.0 0.00 0.00 0.00 26 1005.9
20260504005100 67 276 5.0 13.0 0.00 0.00 0.00 25 1006.0
20260504004612 68 272 5.0 13.0 0.00 0.00 0.00 24 1006.0
20260504004055 68 265 6.0 13.0 0.00 0.00 0.00 24 1006.0
20260504003556 68 234 6.0 13.0 0.00 0.00 0.00 24 1006.0
20260504003102 68 294 7.0 13.0 0.00 0.00 0.00 23 1006.0
20260504002600 69 269 6.0 14.0 0.00 0.00 0.00 23 1006.1
20260504002056 69 242 7.0 14.0 0.00 0.00 0.00 24 1006.1
20260504001602 69 242 5.0 13.0 0.00 0.00 0.00 24 1006.1
20260504001056 69 281 6.0 15.0 0.00 0.00 0.00 24 1006.1
20260504000555 69 274 8.0 15.0 0.00 0.00 0.00 23 1006.2
20260504000106 69 257 7.0 13.0 0.00 0.00 0.00 23 1006.3
20260503235556 69 278 5.0 13.0 0.00 0.00 0.00 24 1006.4
20260503235057 69 252 7.0 13.0 0.00 0.00 0.00 24 1006.4
20260503234603 69 285 6.0 15.0 0.00 0.00 0.00 24 1006.5
20260503234058 69 288 5.0 15.0 0.00 0.00 0.00 25 1006.7
20260503233600 69 263 6.0 15.0 0.00 0.00 0.00 25 1006.8
20260503233110 69 259 7.0 15.0 0.00 0.00 0.00 25 1006.8
20260503232558 69 250 6.0 15.0 0.00 0.00 0.00 26 1006.8
20260503232057 69 246 6.0 16.0 0.00 0.00 0.00 27 1007.0
20260503231604 69 275 8.0 16.0 0.00 0.00 0.00 26 1007.0
20260503231057 69 267 10.0 16.0 0.00 0.00 0.00 26 1007.1
20260503230558 70 267 6.0 17.0 0.00 0.00 0.00 27 1007.1
20260503230108 70 240 9.0 17.0 0.00 0.00 0.00 27 1007.1
20260503225557 70 290 7.0 17.0 0.00 0.00 0.00 27 1007.1
20260503225057 70 284 8.0 17.0 0.00 0.00 0.00 27 1007.2
20260503224603 70 253 10.0 17.0 0.00 0.00 0.00 25 1007.2
20260503224057 70 268 7.0 16.0 0.00 0.00 0.00 27 1007.2
20260503223557 70 278 7.0 16.0 0.00 0.00 0.00 27 1007.4
20260503223056 70 296 7.0 15.0 0.00 0.00 0.00 27 1007.4
20260503222559 70 252 7.0 15.0 0.00 0.00 0.00 26 1007.4
20260503222057 70 282 5.0 14.0 0.00 0.00 0.00 28 1007.3
20260503221601 70 290 8.0 19.0 0.00 0.00 0.00 25 1007.4
20260503221101 70 275 7.0 19.0 0.00 0.00 0.00 26 1007.4
20260503220558 70 241 8.0 16.0 0.00 0.00 0.00 28 1007.5
20260503220058 70 262 6.0 16.0 0.00 0.00 0.00 27 1007.6
20260503215558 70 293 4.0 12.0 0.00 0.00 0.00 29 1007.6
20260503215057 70 265 6.0 14.0 0.00 0.00 0.00 29 1007.6
20260503214555 70 317 7.0 14.0 0.00 0.00 0.00 28 1007.8
20260503214057 70 252 5.0 15.0 0.00 0.00 0.00 28 1007.9
20260503213558 70 331 7.0 15.0 0.00 0.00 0.00 27 1008.0
20260503213103 70 288 6.0 13.0 0.00 0.00 0.00 28 1008.0
20260503212557 70 291 6.0 13.0 0.00 0.00 0.00 27 1008.1
20260503212057 70 258 5.0 13.0 0.00 0.00 0.00 28 1008.2
20260503211613 70 267 7.0 13.0 0.00 0.00 0.00 25 1008.3
20260503211056 70 267 7.0 17.0 0.00 0.00 0.00 25 1008.3
20260503210557 70 273 7.0 17.0 0.00 0.00 0.00 27 1008.3
20260503210057 70 273 7.0 14.0 0.00 0.00 0.00 26 1008.3
20260503205557 70 265 9.0 14.0 0.00 0.00 0.00 27 1008.3
20260503205058 70 260 4.0 18.0 0.00 0.00 0.00 28 1008.5
20260503204559 70 281 8.0 18.0 0.00 0.00 0.00 26 1008.5
20260503204057 70 257 5.0 13.0 0.00 0.00 0.00 28 1008.6
20260503203557 70 232 7.0 15.0 0.00 0.00 0.00 28 1008.6
20260503203057 70 296 8.0 16.0 0.00 0.00 0.00 27 1008.7
20260503202556 70 275 8.0 20.0 0.00 0.00 0.00 27 1008.8
20260503202059 70 298 6.0 20.0 0.00 0.00 0.00 27 1008.9
20260503201557 70 283 9.0 20.0 0.00 0.00 0.00 28 1009.0
20260503201056 71 263 9.0 14.0 0.00 0.00 0.00 27 1009.0
20260503200556 71 291 7.0 15.0 0.00 0.00 0.00 27 1009.1
20260503200111 71 246 6.0 16.0 0.00 0.00 0.00 28 1009.1
20260503195555 71 276 6.0 16.0 0.00 0.00 0.00 28 1009.1
20260503195140 71 259 6.0 15.0 0.00 0.00 0.00 28 1009.1
20260503194612 70 286 7.0 15.0 0.00 0.00 0.00 31 1009.2
20260503194057 70 276 6.0 18.0 0.00 0.00 0.00 29 1009.3
20260503193600 70 291 6.0 18.0 0.00 0.00 0.00 30 1009.4
20260503193106 70 325 8.0 18.0 0.00 0.00 0.00 30 1009.4
20260503192559 70 313 10.0 17.0 0.00 0.00 0.00 32 1009.5
20260503192057 70 280 9.0 15.0 0.00 0.00 0.00 32 1009.5
20260503191609 70 273 8.0 15.0 0.00 0.00 0.00 30 1009.5
20260503191059 70 316 5.0 15.0 0.00 0.00 0.00 29 1009.6
20260503190557 70 296 8.0 18.0 0.00 0.00 0.00 31 1009.6
20260503190109 70 296 6.0 18.0 0.00 0.00 0.00 32 1009.7
20260503185556 70 318 8.0 16.0 0.00 0.00 0.00 30 1009.7
20260503185059 70 322 3.0 15.0 0.00 0.00 0.00 32 1009.8
20260503184633 70 298 7.0 15.0 0.00 0.00 0.00 31 1009.9
20260503184056 69 337 6.0 14.0 0.00 0.00 0.00 31 1010.0
20260503183556 69 279 8.0 17.0 0.00 0.00 0.00 32 1010.1
20260503183102 69 321 6.0 17.0 0.00 0.00 0.00 31 1010.2
20260503182602 69 288 8.0 17.0 0.00 0.00 0.00 32 1010.3
20260503182101 69 252 8.0 16.0 0.00 0.00 0.00 34 1010.2
20260503181616 69 344 10.0 20.0 0.00 0.00 0.00 31 1010.4
20260503181057 69 298 9.0 20.0 0.00 0.00 0.00 32 1010.4
20260503180603 69 306 6.0 20.0 0.00 0.00 0.00 34 1010.4
20260503180118 68 276 9.0 18.0 0.00 0.00 0.00 32 1010.4
20260503175556 68 351 7.0 16.0 0.00 0.00 0.00 32 1010.6
20260503175059 68 325 7.0 19.0 0.00 0.00 0.00 33 1010.6
20260503174604 68 323 8.0 19.0 0.00 0.00 0.00 33 1010.7
20260503174056 68 265 6.0 19.0 0.00 0.00 0.00 34 1010.8
20260503173559 68 296 9.0 19.0 0.00 0.00 0.00 34 1010.7
20260503173108 68 286 7.0 15.0 0.00 0.00 0.00 36 1010.8
20260503172559 68 328 6.0 17.0 0.00 0.00 0.00 33 1010.9
20260503172058 68 348 8.0 17.0 0.00 0.00 0.00 36 1010.9
20260503171557 67 282 6.0 16.0 0.00 0.00 0.00 36 1011.0
20260503171059 67 336 8.0 17.0 0.00 0.00 0.00 36 1011.0
20260503170600 67 320 7.0 17.0 0.00 0.00 0.00 38 1011.1
20260503150559 62 5 7.0 15.0 0.00 0.00 0.00 45 1011.3
20260503150109 61 335 7.0 15.0 0.00 0.00 0.00 45 1011.3
20260503070104 53 270 3.0 7.0 0.00 0.00 0.00 58 1007.8
20260503055058 55 259 3.0 6.0 0.00 0.00 0.00 50 1008.0
20260503054558 55 271 2.0 4.0 0.00 0.00 0.00 50 1008.0
20260503054058 55 248 2.0 4.0 0.00 0.00 0.00 49 1008.0
20260503053558 55 248 2.0 4.0 0.00 0.00 0.00 48 1007.9
20260503053058 55 242 2.0 4.0 0.00 0.00 0.00 48 1008.0
20260503052558 55 240 2.0 8.0 0.00 0.00 0.00 48 1008.0
20260503052100 55 238 3.0 8.0 0.00 0.00 0.00 47 1008.0
20260503051559 55 229 3.0 7.0 0.00 0.00 0.00 47 1008.1
20260503051057 55 313 1.0 9.0 0.00 0.00 0.00 47 1008.2
20260503050559 55 287 3.0 10.0 0.00 0.00 0.00 46 1008.2
20260503050058 55 240 4.0 11.0 0.00 0.00 0.00 46 1008.1
20260503045600 55 266 5.0 11.0 0.00 0.00 0.00 45 1008.1
20260503045059 55 223 7.0 11.0 0.00 0.00 0.00 45 1008.0
20260503044608 55 222 4.0 11.0 0.00 0.00 0.00 45 1008.0
20260503044056 55 210 5.0 11.0 0.00 0.00 0.00 45 1007.9
20260503043558 55 216 6.0 13.0 0.00 0.00 0.00 45 1007.9
20260503043059 55 205 5.0 13.0 0.00 0.00 0.00 44 1007.9
20260503042555 55 221 5.0 10.0 0.00 0.00 0.00 44 1008.0
20260503042059 55 209 5.0 11.0 0.00 0.00 0.00 44 1007.9
20260503041558 55 223 5.0 11.0 0.00 0.00 0.00 43 1007.9
20260503041059 55 213 5.0 11.0 0.00 0.00 0.00 43 1007.8
20260503040559 55 229 4.0 11.0 0.00 0.00 0.00 43 1008.0
20260503035556 56 215 3.0 11.0 0.00 0.00 0.00 42 1008.0
20260503035101 56 232 5.0 11.0 0.00 0.00 0.00 41 1008.1